"2009-05-08 00:00:00",867197,6.248,72.14,3.72,0.476,18.19,108.722,21.61,22.63,22.47,0,111,13.14,22.44,34.1
"2009-05-08 00:00:30",867198,6.406,81.1,7.943,0.529,18.21,108.7229,21.61,22.62,22.92,0,111,13.14,22.44,43.1
"2009-05-08 00:01:00",867199,6.407,83.5,4.618,0.36,18.12,108.7251,21.62,22.63,23.17,0,111,13.14,22.45,45.5
"2009-05-08 00:01:30",867200,6.431,84.5,2.479,0.306,18.11,108.7251,21.62,22.63,24.2,0,111,13.14,22.45,46.5
"2009-05-08 00:02:00",867201,6.56,88.6,3.724,0.189,18.13,108.726,21.62,22.63,24.32,0,111,13.14,22.45,50.6
"2009-05-08 00:02:30",867202,7.043,88.8,1.852,0.338,18.3,108.7278,21.63,22.64,22.66,0,111,13.14,22.45,50.8
"2009-05-08 00:03:00",867203,5.926,92.2,2.203,0.269,18.17,108.7262,21.62,22.62,22.63,0,111,13.14,22.45,54.2
"2009-05-08 00:03:30",867204,5.579,65.26,12.6,0.47,18.22,108.7099,21.58,22.6,22.35,0,111.1,13.14,22.41,27.3
"2009-05-08 00:04:00",867205,6.837,57.45,4.244,0.858,18.3,108.6972,21.55,22.6,22.09,0,111.1,13.14,22.38,19.5
"2009-05-08 00:04:30",867206,5.806,64.44,5.857,1.093,18.3,108.6957,21.54,22.6,21.76,0,111.1,13.14,22.37,26.4
"2009-05-08 00:05:00",867207,7.026,67.97,8.62,0.577,18.27,108.6957,21.54,22.58,21.75,0,111,13.14,22.37,30.0
"2009-05-08 00:05:30",867208,6.503,71.23,5.993,0.81,18.27,108.6957,21.54,22.57,22.53,0,111,13.15,22.37,33.2
"2009-05-08 00:06:00",867209,4.893,61.12,10.41,1.162,18.35,108.6951,21.54,22.55,21.69,0,111,13.15,22.37,23.1
"2009-05-08 00:06:30",867210,4.847,71.92,11.31,0.837,18.3,108.6926,21.54,22.54,21.42,0,111,13.15,22.36,33.9
"2009-05-08 00:07:00",867211,5.232,65.04,9.07,0.958,18.32,108.6839,21.51,22.54,21.17,0,111,13.15,22.34,27.0
"2009-05-08 00:07:30",867212,5.44,58.79,8.52,0.88,18.38,108.6765,21.5,22.52,20.85,0,111,13.15,22.32,20.8
"2009-05-08 00:08:00",867213,6.934,77.14,5.512,0.61,18.28,108.6749,21.49,22.52,21.76,0,111,13.15,22.32,39.1
"2009-05-08 00:08:30",867214,7.332,87.2,1.309,0.274,18.25,108.6698,21.48,22.52,23.66,0,111,13.15,22.31,49.2
"2009-05-08 00:09:00",867215,7.222,83.9,2.087,0.296,18.27,108.6645,21.46,22.52,24.43,0,111,13.15,22.29,45.9
"2009-05-08 00:09:30",867216,6.899,77.98,2.043,0.415,18.29,108.6619,21.46,22.52,24.32,0,111,13.15,22.29,40.0
"2009-05-08 00:10:00",867217,6.512,76.91,3.973,0.707,18.29,108.6619,21.46,22.51,23.48,0,111,13.15,22.29,38.9
"2009-05-08 00:10:30",867218,6.46,83.1,7.294,0.7,18.3,108.6619,21.46,22.49,23.09,0,111,13.15,22.29,45.1
"2009-05-08 00:11:00",867219,6.362,91.2,3.393,0.332,18.25,108.6597,21.45,22.5,23.01,0,111,13.15,22.28,53.2
"2009-05-08 00:11:30",867220,5.736,83.4,10.28,0.59,18.29,108.6417,21.41,22.46,22.69,0,111,13.15,22.23,45.4
"2009-05-08 00:12:00",867221,5.845,74.78,4.41,0.388,18.26,108.6322,21.38,22.47,21.98,0,111,13.15,22.21,36.8
"2009-05-08 00:12:30",867222,6.492,83.4,4.721,0.531,18.26,108.6282,21.37,22.46,22.54,0,111,13.15,22.20,45.4
"2009-05-08 00:13:00",867223,6.459,77.81,3.741,0.437,18.26,108.6282,21.37,22.44,22.7,0,111,13.15,22.20,39.8
"2009-05-08 00:13:30",867224,6.76,77.32,4.231,0.646,18.22,108.6282,21.37,22.44,23.27,0,111,13.15,22.20,39.3
"2009-05-08 00:14:00",867225,6.245,74.64,3.935,0.322,18.18,108.6282,21.37,22.43,23.39,0,111,13.15,22.20,36.6
"2009-05-08 00:14:30",867226,6.099,77.07,5.523,0.306,18.23,108.624,21.36,22.43,23.33,0,111,13.15,22.19,39.1
"2009-05-08 00:15:00",867227,6.538,60.63,2.697,0.298,18.17,108.6094,21.32,22.42,23.64,0,111,13.15,22.15,22.6
"2009-05-08 00:15:30",867228,4.27,51.58,12.05,1.133,18.39,108.5979,21.29,22.4,22.37,0,111,13.15,22.12,13.6
"2009-05-08 00:16:00",867229,3.121,39.76,4.687,0.843,18.45,108.5945,21.29,22.39,21.39,0,111,13.15,22.11,1.8
"2009-05-08 00:16:30",867230,0.817,57.42,35.17,0.544,18.35,108.5945,21.29,22.37,19.88,0,111,13.15,22.11,19.4
"2009-05-08 00:17:00",867231,1.424,341.2,40.28,0.511,18.04,108.5945,21.29,22.36,21.32,0,111,13.15,22.11,303.2
"2009-05-08 00:17:30",867232,1.364,113.1,15.38,0.411,18.33,108.5948,21.29,22.37,19.54,0,111,13.15,22.11,75.1
"2009-05-08 00:18:00",867233,1.239,131.7,11.19,0.209,18.26,108.5951,21.29,22.37,19.11,0,111,13.14,22.11,93.7
"2009-05-08 00:18:30",867234,1.614,118.7,15.81,0.43,18.17,108.5988,21.3,22.37,19.35,0,111,13.15,22.12,80.7
"2009-05-08 00:19:00",867235,3.028,109.3,11.59,0.662,17.89,108.607,21.32,22.36,20.26,0,111,13.15,22.14,71.3
"2009-05-08 00:19:30",867236,4.915,98.9,4.329,0.609,17.77,108.62,21.35,22.37,23.2,0,111,13.15,22.18,60.9
"2009-05-08 00:20:00",867237,5.897,92.9,3.166,0.387,17.8,108.6304,21.38,22.39,23.56,0,111,13.14,22.20,54.9
"2009-05-08 00:20:30",867238,4.998,95.7,5.084,0.604,17.86,108.6301,21.38,22.4,23.78,0,111,13.14,22.20,57.7
"2009-05-08 00:21:00",867239,5.679,99.3,3.588,0.454,17.98,108.6301,21.38,22.4,23.2,0,111,13.15,22.20,61.3
"2009-05-08 00:21:30",867240,6.47,95.7,7.377,0.566,17.99,108.631,21.38,22.41,23.23,0,111,13.15,22.21,57.7
"2009-05-08 00:22:00",867241,7.327,93.2,5.969,0.653,18.01,108.631,21.38,22.41,23.57,0,111,13.15,22.21,55.2
"2009-05-08 00:22:30",867242,7.82,96.3,2.756,0.376,18.09,108.6196,21.35,22.41,23.78,0,111,13.15,22.18,58.3
"2009-05-08 00:23:00",867243,7.393,99.8,4.45,0.267,18.2,108.6052,21.31,22.4,23.64,0,111,13.15,22.14,61.8
"2009-05-08 00:23:30",867244,6.72,95,6.004,0.267,18.15,108.6043,21.31,22.38,23.52,0,111,13.15,22.14,57.0
"2009-05-08 00:24:00",867245,6.555,90.6,3.932,0.591,18.19,108.6083,21.32,22.39,23.42,0,111,13.15,22.15,52.6
"2009-05-08 00:24:30",867246,7.387,92.1,2.275,0.322,18.15,108.6144,21.34,22.37,23.8,0,111,13.15,22.16,54.1
"2009-05-08 00:25:00",867247,7.015,85.1,4.225,0.28,18.24,108.6114,21.33,22.36,23.7,0,111,13.15,22.15,47.1
"2009-05-08 00:25:30",867248,6.882,88.4,1.304,0.117,18.21,108.5922,21.28,22.35,23.86,0,111,13.15,22.11,50.4
"2009-05-08 00:26:00",867249,6.726,87.1,3.285,0.298,18.17,108.5883,21.27,22.32,23.81,0,111,13.15,22.10,49.1
"2009-05-08 00:26:30",867250,6.287,86.8,4.254,0.257,18.23,108.5864,21.26,22.32,23.46,0,111,13.15,22.09,48.8
"2009-05-08 00:27:00",867251,6.521,91,3.286,0.397,18.21,108.5874,21.27,22.29,23.19,0,111,13.15,22.09,53.0
"2009-05-08 00:27:30",867252,7.343,88.8,1.702,0.17,18.08,108.5886,21.27,22.29,23.77,0,111,13.15,22.10,50.8
"2009-05-08 00:28:00",867253,7.445,89.8,2.103,0.166,18.13,108.5746,21.23,22.29,24.05,0,111,13.15,22.06,51.8
"2009-05-08 00:28:30",867254,7.304,93.1,1.258,0.214,18.19,108.5581,21.19,22.27,23.99,0,111,13.15,22.02,55.1
"2009-05-08 00:29:00",867255,6.761,91.3,2.078,0.231,18.19,108.5588,21.19,22.25,23.57,0,111,13.15,22.02,53.3
"2009-05-08 00:29:30",867256,6.413,95,1.965,0.231,18.26,108.5575,21.19,22.24,23.46,0,111,13.15,22.02,57.0
"2009-05-08 00:30:00",867257,6.545,93.9,3.257,0.17,18.23,108.5481,21.17,22.2,23.45,0,111,13.16,21.99,55.9
"2009-05-08 00:30:30",867258,6.249,95,3.801,0.196,18.28,108.5313,21.12,22.19,23.29,0,111,13.16,21.95,57.0
"2009-05-08 00:31:00",867259,6.046,95.6,3.422,0.276,18.24,108.5282,21.11,22.18,23.02,0,111,13.16,21.94,57.6
"2009-05-08 00:31:30",867260,6.038,94,3.361,0.206,18.21,108.5297,21.12,22.15,23.4,0,111,13.16,21.94,56.0
"2009-05-08 00:32:00",867261,6.07,98.3,1.413,0.1,18.24,108.5294,21.12,22.15,23.37,0,111,13.16,21.94,60.3
"2009-05-08 00:32:30",867262,6.067,94.6,3.393,0.456,18.23,108.5218,21.1,22.13,23.18,0,111,13.16,21.92,56.6
"2009-05-08 00:33:00",867263,5.928,95.3,2.867,0.341,18.26,108.5103,21.07,22.13,23.08,0,111,13.16,21.89,57.3
"2009-05-08 00:33:30",867264,5.841,95.9,4.177,0.556,18.29,108.5011,21.05,22.1,22.89,0,111,13.15,21.87,57.9
"2009-05-08 00:34:00",867265,5.979,96,4.111,0.501,18.33,108.4966,21.03,22.09,22.66,0,111,13.15,21.86,58.0
"2009-05-08 00:34:30",867266,5.658,100.2,3.728,0.669,18.3,108.4963,21.03,22.09,22.56,0,111,13.15,21.86,62.2
"2009-05-08 00:35:00",867267,5.693,93.2,3.795,0.576,18.3,108.4963,21.03,22.08,22.41,0,111,13.15,21.86,55.2
"2009-05-08 00:35:30",867268,6.531,91.6,1.76,0.273,18.14,108.4963,21.03,22.09,23.95,0,111,13.15,21.86,53.6
"2009-05-08 00:36:00",867269,6.868,88.7,2.514,0.164,18.33,108.4963,21.03,22.08,24.15,0,111,13.15,21.86,50.7
"2009-05-08 00:36:30",867270,6.474,85.6,1.607,0.281,18.6,108.4963,21.03,22.07,23.74,0,111,13.15,21.86,47.6
"2009-05-08 00:37:00",867271,6.628,81.6,2.919,0.352,18.7,108.4963,21.03,22.07,23.58,0,111,13.15,21.86,43.6
"2009-05-08 00:37:30",867272,6.122,85.7,2.991,0.185,18.76,108.4963,21.03,22.07,23.52,0,111,13.15,21.86,47.7
"2009-05-08 00:38:00",867273,6.558,85.4,4.51,0.331,18.81,108.496,21.03,22.05,23.47,0,111,13.15,21.86,47.4
"2009-05-08 00:38:30",867274,6.856,85.6,3.527,0.348,18.88,108.4932,21.03,22.05,23.31,0,111,13.15,21.85,47.6
"2009-05-08 00:39:00",867275,7.044,86.8,2.544,0.202,18.74,108.482,21,22.04,23.49,0,111,13.16,21.82,48.8
"2009-05-08 00:39:30",867276,7.145,90.9,2.336,0.16,18.7,108.4674,20.96,22.03,24.07,0,111,13.16,21.78,52.9
"2009-05-08 00:40:00",867277,7.129,93.4,1.277,0.339,18.7,108.4626,20.95,22.01,24.56,0,111,13.16,21.77,55.4
"2009-05-08 00:40:30",867278,7.345,89.5,2.275,0.282,18.52,108.4626,20.95,21.99,24.91,0,111,13.16,21.77,51.5
"2009-05-08 00:41:00",867279,7.234,92.3,1.512,0.242,18.51,108.4553,20.93,22,24.62,0,110.9,13.16,21.75,54.3
"2009-05-08 00:41:30",867280,7.473,92.9,2.005,0.355,18.55,108.4374,20.88,21.98,25.44,0,110.9,13.16,21.71,54.9
"2009-05-08 00:42:00",867281,7.566,91.6,0.74,0.165,18.57,108.4301,20.86,21.97,26.32,0,110.9,13.16,21.69,53.6
"2009-05-08 00:42:30",867282,7.2,93.1,1.118,0.107,18.59,108.4322,20.87,21.95,26.24,0,110.9,13.16,21.69,55.1
"2009-05-08 00:43:00",867283,7.118,95.3,1.363,0.155,18.55,108.4246,20.85,21.94,26.56,0,110.9,13.16,21.67,57.3
"2009-05-08 00:43:30",867284,7.307,92.9,1.759,0.21,18.67,108.404,20.8,21.92,26.33,0,110.9,13.16,21.62,54.9
"2009-05-08 00:44:00",867285,7.326,87.6,2.721,0.257,18.88,108.4027,20.79,21.92,24.76,0,110.9,13.16,21.62,49.6
"2009-05-08 00:44:30",867286,7.043,91.8,1.314,0.297,18.7,108.4055,20.8,21.88,25.48,0,110.9,13.16,21.62,53.8
"2009-05-08 00:45:00",867287,7.171,90,4.243,0.307,18.8,108.4022,20.79,21.85,24.68,0,110.9,13.16,21.62,52.0
"2009-05-08 00:45:30",867288,7.536,89.3,2.865,0.373,18.55,108.3901,20.76,21.84,24.69,0,110.9,13.16,21.59,51.3
"2009-05-08 00:46:00",867289,6.228,89.1,3.695,0.416,18.47,108.3858,20.75,21.81,25.03,0,110.9,13.17,21.57,51.1
"2009-05-08 00:46:30",867290,6.559,95.3,2.031,0.392,18.49,108.3885,20.76,21.81,24.8,0,110.9,13.17,21.58,57.3
"2009-05-08 00:47:00",867291,6.684,95.3,2.846,0.231,18.36,108.3891,20.76,21.79,25.63,0,110.9,13.17,21.58,57.3
"2009-05-08 00:47:30",867292,7.352,92.3,2.319,0.359,18.51,108.3866,20.75,21.78,25.73,0,110.9,13.17,21.58,54.3
"2009-05-08 00:48:00",867293,7.202,99,3.264,0.266,18.5,108.3692,20.71,21.77,25.82,0,110.9,13.17,21.53,61.0
"2009-05-08 00:48:30",867294,7.3,100.3,1.774,0.354,18.48,108.3602,20.68,21.75,26.05,0,110.9,13.17,21.51,62.3
"2009-05-08 00:49:00",867295,7.248,100.6,1.975,0.129,18.59,108.3609,20.69,21.73,26.17,0,110.9,13.17,21.51,62.6
"2009-05-08 00:49:30",867296,6.788,101,2.586,0.213,18.65,108.3633,20.69,21.73,26.16,0,110.9,13.17,21.52,63.0
"2009-05-08 00:50:00",867297,6.853,103.7,1.212,0.181,18.62,108.364,20.69,21.71,26.05,0,110.9,13.17,21.52,65.7
"2009-05-08 00:50:30",867298,6.509,105,3.626,0.234,18.59,108.3508,20.66,21.7,25.88,0,110.9,13.17,21.48,67.0
"2009-05-08 00:51:00",867299,6.254,98.9,2.896,0.256,18.77,108.3378,20.63,21.68,25.37,0,110.9,13.16,21.45,60.9
"2009-05-08 00:51:30",867300,6.233,107.2,3.943,0.444,18.86,108.3311,20.61,21.66,24.78,0,110.9,13.16,21.43,69.2
"2009-05-08 00:52:00",867301,6.5,110.2,2.891,0.178,18.77,108.3305,20.61,21.67,25.91,0,110.9,13.16,21.43,72.2
"2009-05-08 00:52:30",867302,6.449,107.3,1.494,0.266,18.82,108.3305,20.61,21.66,25.74,0,110.9,13.16,21.43,69.3
"2009-05-08 00:53:00",867303,6.323,110.3,1.223,0.1,18.87,108.3291,20.6,21.63,26.29,0,110.9,13.16,21.43,72.3
"2009-05-08 00:53:30",867304,6.286,110.2,1.275,0.142,18.84,108.3218,20.59,21.64,26.18,0,110.9,13.16,21.41,72.2
"2009-05-08 00:54:00",867305,6.481,111.2,1.568,0.065,18.7,108.3069,20.55,21.61,26.4,0,110.9,13.16,21.37,73.2
"2009-05-08 00:54:30",867306,6.338,111.6,1.444,0.123,18.65,108.2971,20.52,21.6,26.19,0,110.9,13.16,21.35,73.6
"2009-05-08 00:55:00",867307,6.693,110.4,2.083,0.153,18.54,108.2968,20.52,21.59,26.34,0,110.9,13.17,21.34,72.4
"2009-05-08 00:55:30",867308,6.154,115.7,2.686,0.207,18.65,108.2968,20.52,21.59,26.2,0,110.9,13.17,21.34,77.7
"2009-05-08 00:56:00",867309,6.266,113.2,3.594,0.381,18.69,108.2968,20.52,21.58,25.32,0,110.9,13.17,21.34,75.2
"2009-05-08 00:56:30",867310,6.205,110.4,1.632,0.171,18.69,108.2929,20.51,21.54,25.29,0,110.9,13.18,21.33,72.4
"2009-05-08 00:57:00",867311,6.404,112.9,1.067,0.05,18.66,108.285,20.49,21.54,25.83,0,110.9,13.18,21.31,74.9
"2009-05-08 00:57:30",867312,6.183,110.6,1.251,0.1,18.77,108.2766,20.47,21.53,25.81,0,110.9,13.18,21.29,72.6
"2009-05-08 00:58:00",867313,6.148,112.1,0.463,0.064,18.74,108.267,20.44,21.53,25.84,0,110.9,13.18,21.27,74.1
"2009-05-08 00:58:30",867314,5.804,109.8,3.082,0.289,18.84,108.2633,20.44,21.51,25.24,0,110.9,13.18,21.26,71.8
"2009-05-08 00:59:00",867315,5.419,112.7,3.388,0.395,18.84,108.2646,20.44,21.52,24.18,0,110.9,13.18,21.26,74.7
"2009-05-08 00:59:30",867316,6.037,109.4,2.031,0.213,18.7,108.2664,20.44,21.51,25.22,0,110.9,13.18,21.27,71.4
"2009-05-08 01:00:00",867317,6.578,105.8,2.878,0.258,18.64,108.2682,20.45,21.51,25.86,0,110.9,13.18,21.27,67.8
"2009-05-08 01:00:30",867318,6.457,105.3,2.065,0.118,18.6,108.274,20.46,21.52,26.31,0,110.9,13.18,21.29,67.3
"2009-05-08 01:01:00",867319,6.433,101.5,1.71,0.099,18.66,108.2762,20.47,21.51,26.36,0,110.9,13.18,21.29,63.5
"2009-05-08 01:01:30",867320,6.304,101.7,1.34,0.119,18.59,108.2804,20.48,21.5,26.42,0,110.9,13.18,21.30,63.7
"2009-05-08 01:02:00",867321,6.296,106.8,1.33,0.106,18.49,108.2862,20.49,21.51,26.62,0,110.9,13.18,21.32,68.8
"2009-05-08 01:02:30",867322,6.368,106.5,1.834,0.091,18.53,108.2868,20.5,21.51,26.43,0,110.9,13.18,21.32,68.5
"2009-05-08 01:03:00",867323,6.343,105,2.509,0.154,18.43,108.2886,20.5,21.5,26.46,0,110.9,13.18,21.32,67.0
"2009-05-08 01:03:30",867324,6.484,103.9,2.023,0.177,18.41,108.2914,20.51,21.5,26.69,0,110.8,13.18,21.33,65.9
"2009-05-08 01:04:00",867325,7.105,101.5,0.819,0.323,18.36,108.2914,20.51,21.5,26.93,0,110.8,13.18,21.33,63.5
"2009-05-08 01:04:30",867326,7.375,98.7,2.181,0.159,18.33,108.2923,20.51,21.5,27.02,0,110.8,13.18,21.33,60.7
"2009-05-08 01:05:00",867327,7.111,99.7,1.331,0.177,18.39,108.2935,20.51,21.5,26.94,0,110.8,13.18,21.34,61.7
"2009-05-08 01:05:30",867328,6.877,101.1,3.762,0.236,18.39,108.2947,20.52,21.51,26.79,0,110.8,13.18,21.34,63.1
"2009-05-08 01:06:00",867329,6.543,100.8,2.621,0.221,18.42,108.2981,20.52,21.49,26.58,0,110.8,13.18,21.35,62.8
"2009-05-08 01:06:30",867330,6.581,101.4,2.174,0.304,18.43,108.2975,20.52,21.48,26.49,0,110.8,13.18,21.35,63.4
"2009-05-08 01:07:00",867331,6.104,104.2,2.587,0.143,18.47,108.299,20.53,21.5,26.16,0,110.8,13.19,21.35,66.2
"2009-05-08 01:07:30",867332,6.548,101.5,2.072,0.36,18.43,108.2981,20.52,21.5,26.13,0,110.8,13.18,21.35,63.5
"2009-05-08 01:08:00",867333,6.649,98.2,1.218,0.113,18.48,108.2993,20.53,21.5,25.99,0,110.8,13.18,21.35,60.2
"2009-05-08 01:08:30",867334,5.864,103.8,4.24,0.496,18.54,108.2996,20.53,21.51,25.36,0,110.8,13.18,21.35,65.8
"2009-05-08 01:09:00",867335,6.042,90.6,3.961,0.422,18.58,108.2993,20.53,21.5,24.56,0,110.8,13.18,21.35,52.6
"2009-05-08 01:09:30",867336,5.591,92.2,7.151,0.315,18.54,108.2996,20.53,21.5,24.59,0,110.8,13.18,21.35,54.2
"2009-05-08 01:10:00",867337,5.487,100,4.086,0.233,18.6,108.2996,20.53,21.49,24.85,0,110.8,13.18,21.35,62.0
"2009-05-08 01:10:30",867338,5.668,106.5,2.799,0.165,18.6,108.2996,20.53,21.52,24.99,0,110.8,13.18,21.35,68.5
"2009-05-08 01:11:00",867339,5.83,104.2,2.724,0.244,18.67,108.2996,20.53,21.51,25.4,0,110.8,13.18,21.35,66.2
"2009-05-08 01:11:30",867340,6.082,104.8,2.634,0.239,18.64,108.2996,20.53,21.52,25.44,0,110.8,13.18,21.35,66.8
"2009-05-08 01:12:00",867341,5.813,95,4.3,0.529,18.71,108.2996,20.53,21.51,24.96,0,110.8,13.18,21.35,57.0
"2009-05-08 01:12:30",867342,5.488,91.2,4.535,0.553,18.7,108.2996,20.53,21.53,24.14,0,110.8,13.18,21.35,53.2
"2009-05-08 01:13:00",867343,5.374,101.7,2.953,0.571,18.67,108.2999,20.53,21.53,24.27,0,110.8,13.18,21.35,63.7
"2009-05-08 01:13:30",867344,6.617,103.2,2.386,0.338,18.61,108.3013,20.53,21.54,24.69,0,110.8,13.18,21.36,65.2
"2009-05-08 01:14:00",867345,6.339,104.2,2.191,0.517,18.6,108.3044,20.54,21.53,24.95,0,110.8,13.19,21.36,66.2
"2009-05-08 01:14:30",867346,5.861,102.7,2.488,0.214,18.51,108.3106,20.56,21.55,25.18,0,110.8,13.19,21.38,64.7
"2009-05-08 01:15:00",867347,6.601,99,2.485,0.199,18.41,108.3156,20.57,21.55,25.95,0,110.8,13.19,21.39,61.0
"2009-05-08 01:15:30",867348,7.313,100.1,3.386,0.161,18.37,108.3153,20.57,21.54,26.47,0,110.8,13.19,21.39,62.1
"2009-05-08 01:16:00",867349,7.447,94.1,1.612,0.142,18.28,108.3063,20.55,21.56,27.05,0,110.8,13.19,21.37,56.1
"2009-05-08 01:16:30",867350,7.376,95.6,1.092,0.149,18.3,108.3018,20.53,21.56,27.36,0,110.8,13.19,21.36,57.6
"2009-05-08 01:17:00",867351,6.923,93.6,4.242,0.313,18.5,108.2996,20.53,21.56,26.86,0,110.8,13.19,21.35,55.6
"2009-05-08 01:17:30",867352,7.274,92.6,2.715,0.361,18.55,108.2996,20.53,21.54,25.64,0,110.8,13.19,21.35,54.6
"2009-05-08 01:18:00",867353,7.324,91.2,1.584,0.147,18.32,108.2996,20.53,21.56,27.05,0,110.8,13.19,21.35,53.2
"2009-05-08 01:18:30",867354,7.646,94,2.756,0.217,18.36,108.2996,20.53,21.54,27.06,0,110.8,13.19,21.35,56.0
"2009-05-08 01:19:00",867355,7.454,97.9,2.355,0.128,18.44,108.2996,20.53,21.53,26.98,0,110.8,13.19,21.35,59.9
"2009-05-08 01:19:30",867356,7.414,97.7,1.048,0.153,18.47,108.2917,20.51,21.54,26.92,0,110.8,13.19,21.33,59.7
"2009-05-08 01:20:00",867357,7.232,98.4,3.029,0.249,18.55,108.2706,20.45,21.52,26.34,0,110.8,13.19,21.28,60.4
"2009-05-08 01:20:30",867358,7.45,97.3,3.459,0.445,18.5,108.2659,20.44,21.51,26.55,0,110.8,13.19,21.27,59.3
"2009-05-08 01:21:00",867359,7.666,85.8,4.542,0.365,18.77,108.2659,20.44,21.51,24.54,0,110.8,13.19,21.27,47.8
"2009-05-08 01:21:30",867360,7.828,85.4,2.296,0.431,18.6,108.2659,20.44,21.49,25.6,0,110.8,13.19,21.27,47.4
"2009-05-08 01:22:00",867361,7.625,87.7,4.098,0.237,18.51,108.2659,20.44,21.48,25.89,0,110.8,13.2,21.27,49.7
"2009-05-08 01:22:30",867362,7.6,88.7,2.104,0.223,18.3,108.2656,20.44,21.48,27.23,0,110.8,13.2,21.26,50.7
"2009-05-08 01:23:00",867363,6.79,90,7.349,0.342,18.43,108.2591,20.42,21.47,27.04,0,110.8,13.2,21.25,52.0
"2009-05-08 01:23:30",867364,7.494,99.6,3.186,0.903,18.54,108.2448,20.39,21.47,26.58,0,110.8,13.2,21.21,61.6
"2009-05-08 01:24:00",867365,7.736,95.6,5.566,0.666,18.65,108.2349,20.36,21.44,25.49,0,110.8,13.2,21.19,57.6
"2009-05-08 01:24:30",867366,8.13,102.3,2.775,0.448,18.7,108.2321,20.36,21.43,25.97,0,110.8,13.19,21.18,64.3
"2009-05-08 01:25:00",867367,8.26,99,2.314,0.43,18.58,108.2321,20.36,21.42,25.48,0,110.8,13.19,21.18,61.0
"2009-05-08 01:25:30",867368,7.46,89.3,2.898,0.405,18.78,108.2324,20.36,21.41,25.04,0,110.8,13.19,21.18,51.3
"2009-05-08 01:26:00",867369,7.585,91.8,1.646,0.55,18.63,108.2324,20.36,21.41,24.87,0,110.8,13.19,21.18,53.8
"2009-05-08 01:26:30",867370,7.306,88.8,4.726,0.345,18.54,108.233,20.36,21.41,25.97,0,110.8,13.19,21.18,50.8
"2009-05-08 01:27:00",867371,7.569,97.6,1.401,0.357,18.5,108.2333,20.36,21.4,26.59,0,110.8,13.19,21.18,59.6
"2009-05-08 01:27:30",867372,7.196,99.5,1.624,0.214,18.47,108.2336,20.36,21.39,26.95,0,110.8,13.19,21.18,61.5
"2009-05-08 01:28:00",867373,7.049,96,2.5,0.236,18.47,108.2339,20.36,21.39,27.09,0,110.8,13.19,21.18,58.0
"2009-05-08 01:28:30",867374,7.372,97.8,2.003,0.184,18.52,108.2352,20.36,21.39,27.14,0,110.8,13.19,21.19,59.8
"2009-05-08 01:29:00",867375,6.762,95.4,3.949,0.283,18.81,108.2326,20.36,21.39,26.14,0,110.8,13.19,21.18,57.4
"2009-05-08 01:29:30",867376,5.553,96.9,4.667,0.44,18.85,108.2274,20.34,21.37,25.64,0,110.8,13.19,21.17,58.9
"2009-05-08 01:30:00",867377,5.682,111.7,4.222,0.462,18.74,108.2188,20.32,21.38,25.26,0,110.8,13.19,21.14,73.7
"2009-05-08 01:30:30",867378,4.941,102,7.336,0.436,18.78,108.2125,20.3,21.36,25.28,0,110.8,13.2,21.13,64.0
"2009-05-08 01:31:00",867379,5.017,94.7,9.13,0.708,18.79,108.2109,20.3,21.36,25.08,0,110.8,13.2,21.12,56.7
"2009-05-08 01:31:30",867380,6.617,95.2,7.772,0.466,18.82,108.2095,20.3,21.35,24.88,0,110.8,13.2,21.12,57.2
"2009-05-08 01:32:00",867381,6.218,92.1,4.447,0.685,18.83,108.2121,20.3,21.35,24.65,0,110.8,13.2,21.13,54.1
"2009-05-08 01:32:30",867382,7.342,91.4,4.406,0.602,18.78,108.2125,20.3,21.35,24.83,0,110.8,13.2,21.13,53.4
"2009-05-08 01:33:00",867383,7.043,100.5,4.583,0.495,18.76,108.2127,20.31,21.33,25.53,0,110.8,13.2,21.13,62.5
"2009-05-08 01:33:30",867384,5.121,104.3,6.879,0.743,18.79,108.2137,20.31,21.34,25.17,0,110.8,13.2,21.13,66.3
"2009-05-08 01:34:00",867385,5.419,86.2,7.336,0.58,18.92,108.2134,20.31,21.35,24.71,0,110.8,13.2,21.13,48.2
"2009-05-08 01:34:30",867386,5.659,83.6,10.06,0.849,18.87,108.2146,20.31,21.35,24.34,0,110.8,13.2,21.13,45.6
"2009-05-08 01:35:00",867387,6.071,100.3,8.48,0.556,18.81,108.2194,20.32,21.35,25.21,0,110.8,13.2,21.15,62.3
"2009-05-08 01:35:30",867388,6.683,90.8,6.419,0.403,19.02,108.2238,20.33,21.35,24.59,0,110.8,13.2,21.16,52.8
"2009-05-08 01:36:00",867389,6.173,94.5,8.68,0.435,18.97,108.2284,20.35,21.34,23.89,0,110.8,13.2,21.17,56.5
"2009-05-08 01:36:30",867390,5.752,105,9.09,0.374,18.89,108.2291,20.35,21.34,24.75,0,110.8,13.2,21.17,67.0
"2009-05-08 01:37:00",867391,5.558,100.2,8.03,0.662,19.02,108.2321,20.36,21.34,24.23,0,110.8,13.2,21.18,62.2
"2009-05-08 01:37:30",867392,6.026,104.8,5.031,0.36,19.02,108.2322,20.36,21.34,23.82,0,110.8,13.2,21.18,66.8
"2009-05-08 01:38:00",867393,6.154,104.9,3.019,0.298,18.99,108.2343,20.36,21.34,24.21,0,110.8,13.2,21.18,66.9
"2009-05-08 01:38:30",867394,6.869,102.7,3.621,0.636,18.79,108.2346,20.36,21.34,24.96,0,110.8,13.2,21.18,64.7
"2009-05-08 01:39:00",867395,5.449,93.2,13.21,0.982,19.05,108.2349,20.36,21.34,24.3,0,110.8,13.2,21.19,55.2
"2009-05-08 01:39:30",867396,5.026,92.8,12.36,0.925,18.93,108.2349,20.36,21.35,24.09,0,110.8,13.2,21.19,54.8
"2009-05-08 01:40:00",867397,6.198,104.3,3.977,0.81,18.85,108.2349,20.36,21.34,24.99,0,110.8,13.2,21.19,66.3
"2009-05-08 01:40:30",867398,6.924,99.4,2.863,0.346,18.77,108.2349,20.36,21.34,25.57,0,110.8,13.21,21.19,61.4
"2009-05-08 01:41:00",867399,6.884,100.4,1.849,0.139,18.81,108.2349,20.36,21.35,25.77,0,110.8,13.21,21.19,62.4
"2009-05-08 01:41:30",867400,6.769,102.2,2.607,0.342,18.78,108.2349,20.36,21.34,25.89,0,110.8,13.2,21.19,64.2
"2009-05-08 01:42:00",867401,5.937,102.3,2.568,0.325,18.94,108.2329,20.36,21.35,25.33,0,110.8,13.2,21.18,64.3
"2009-05-08 01:42:30",867402,6.42,102.1,1.884,0.306,18.85,108.2203,20.32,21.33,25.64,0,110.8,13.2,21.15,64.1
"2009-05-08 01:43:00",867403,6.767,102,2.22,0.358,18.75,108.2042,20.28,21.32,26.16,0,110.8,13.2,21.11,64.0
"2009-05-08 01:43:30",867404,6.956,103.6,1.979,0.216,18.66,108.2011,20.28,21.32,26.52,0,110.8,13.2,21.10,65.6
"2009-05-08 01:44:00",867405,6.822,100,1.72,0.234,18.61,108.2011,20.28,21.3,27.11,0,110.8,13.2,21.10,62.0
"2009-05-08 01:44:30",867406,6.918,97.3,3.446,0.394,18.95,108.1871,20.24,21.28,26.08,0,110.8,13.2,21.06,59.3
"2009-05-08 01:45:00",867407,6.064,99.1,3.458,0.543,18.89,108.1708,20.2,21.27,26.16,0,110.8,13.2,21.02,61.1
"2009-05-08 01:45:30",867408,6.755,106.1,1.976,0.356,18.85,108.1674,20.19,21.26,26.05,0,110.8,13.2,21.01,68.1
"2009-05-08 01:46:00",867409,6.683,104.4,2.896,0.403,18.77,108.1674,20.19,21.26,26.46,0,110.8,13.2,21.01,66.4
"2009-05-08 01:46:30",867410,6.014,106.1,5.681,0.415,18.89,108.1665,20.19,21.23,26.17,0,110.8,13.2,21.01,68.1
"2009-05-08 01:47:00",867411,5.751,107.7,2.636,0.367,18.89,108.1516,20.15,21.22,25.89,0,110.8,13.21,20.97,69.7
"2009-05-08 01:47:30",867412,6.597,109.8,2.895,0.363,18.6,108.1381,20.11,21.21,26.58,0,110.8,13.21,20.94,71.8
"2009-05-08 01:48:00",867413,5.402,107.6,5.407,0.742,19.14,108.1337,20.1,21.2,25.35,0,110.8,13.21,20.92,69.6
"2009-05-08 01:48:30",867414,6.417,104,3.41,0.444,18.82,108.1337,20.1,21.19,25.73,0,110.8,13.21,20.92,66.0
"2009-05-08 01:49:00",867415,6.613,102.6,6.136,0.361,18.91,108.1337,20.1,21.17,26.06,0,110.8,13.21,20.92,64.6
"2009-05-08 01:49:30",867416,6.625,98.5,5.791,0.494,18.93,108.1331,20.1,21.16,25.67,0,110.8,13.21,20.92,60.5
"2009-05-08 01:50:00",867417,7.216,107.4,4.939,0.4,18.77,108.128,20.09,21.16,26.4,0,110.8,13.21,20.91,69.4